VIR8Y KLAX-EGLL

Flight info

Callsign VIR8Y
Flight time N/A
Altitude 35000
Route DOTSS2 CLEEE DCT PKE DCT DRK DCT ALS/N0461F370 DCT HLC DCT MCW DCT ODI DCT SSM DCT 48N080W 50N075W DCT GELLS DCT PUVOK/N0474F390 DCT AVUTI/M081F390 DCT 58N050W 59N040W 59N030W 58N020W DCT SUNOT/N0467F390 DCT KESIX DCT APSOV DCT KELLY L10 WAL UY53 NUGRA
Aircraft A343/H-SDE2E3FGHIJ4J5M1RWXY/LB1D1

Departure

Time 2026-05-05 23:02
Airport Los Angeles International Airport (KLAX)

Arrival

Time N/A
Airport London Heathrow Airport (EGLL)
Time Latitude Longitude Altitude Speed Heading
2026-05-05 22:48 33.94541 -118.41006 100 ft 0 kts 263°
2026-05-05 22:53 33.94540 -118.41016 97 ft 0 kts 263°
2026-05-05 22:53 33.94541 -118.41004 96 ft 0 kts 263°
2026-05-05 22:54 33.94542 -118.40998 96 ft 0 kts 263°
2026-05-05 22:54 33.94556 -118.40889 96 ft 0 kts 335°
2026-05-05 22:55 33.94576 -118.40891 97 ft 0 kts 352°
2026-05-05 22:57 33.94578 -118.40892 97 ft 2 kts 352°
2026-05-05 22:57 33.94611 -118.40897 99 ft 8 kts 352°
2026-05-05 22:57 33.94674 -118.40907 101 ft 9 kts 353°
2026-05-05 22:57 33.94735 -118.40905 99 ft 9 kts 12°
2026-05-05 22:58 33.94790 -118.40887 100 ft 8 kts 17°
2026-05-05 22:58 33.94835 -118.40840 99 ft 10 kts 64°
2026-05-05 22:58 33.94846 -118.40757 98 ft 11 kts 82°
2026-05-05 22:58 33.94859 -118.40636 98 ft 18 kts 83°
2026-05-05 22:59 33.94876 -118.40482 101 ft 19 kts 83°
2026-05-05 22:59 33.94891 -118.40324 101 ft 19 kts 83°
2026-05-05 22:59 33.94906 -118.40172 101 ft 18 kts 83°
2026-05-05 22:59 33.94917 -118.40085 99 ft 0 kts 73°
2026-05-05 23:00 33.94994 -118.40051 100 ft 13 kts 352°
2026-05-05 23:00 33.95027 -118.40073 99 ft 2 kts 297°
2026-05-05 23:00 33.95028 -118.40085 101 ft 3 kts 281°
2026-05-05 23:01 33.95026 -118.40114 101 ft 5 kts 262°
2026-05-05 23:01 33.95011 -118.40256 102 ft 38 kts 263°
2026-05-05 23:01 33.94958 -118.40782 102 ft 85 kts 263°
2026-05-05 23:01 33.94870 -118.41642 102 ft 123 kts 263°
2026-05-05 23:02 33.94749 -118.42790 213 ft 144 kts 262°
2026-05-05 23:02 33.94620 -118.43989 626 ft 149 kts 261°
2026-05-05 23:02 33.94486 -118.45224 1113 ft 152 kts 263°
2026-05-05 23:02 33.94347 -118.46544 1442 ft 169 kts 263°
2026-05-05 23:03 33.94190 -118.48036 1731 ft 188 kts 263°
2026-05-05 23:03 33.94025 -118.49672 2001 ft 210 kts 263°
2026-05-05 23:03 33.93585 -118.51438 2399 ft 229 kts 243°
2026-05-05 23:03 33.92485 -118.52882 2918 ft 246 kts 212°
2026-05-05 23:04 33.90788 -118.53338 3466 ft 261 kts 175°
2026-05-05 23:04 33.89115 -118.52483 4169 ft 269 kts 140°
2026-05-05 23:04 33.88094 -118.50603 4908 ft 275 kts 105°
2026-05-05 23:04 33.88102 -118.48341 5672 ft 273 kts 70°
2026-05-05 23:05 33.89103 -118.46455 6498 ft 268 kts 44°
2026-05-05 23:05 33.90503 -118.44992 7218 ft 267 kts 29°
2026-05-05 23:05 33.92174 -118.44024 7906 ft 268 kts 28°
2026-05-05 23:05 33.93648 -118.42658 8727 ft 270 kts 46°
2026-05-05 23:06 33.94786 -118.40845 9496 ft 274 kts 54°
2026-05-05 23:06 33.95845 -118.38913 10233 ft 279 kts 54°
2026-05-05 23:06 33.96949 -118.36915 10566 ft 295 kts 54°
2026-05-05 23:06 33.98130 -118.34807 10856 ft 311 kts 53°
2026-05-05 23:07 33.99373 -118.32598 11077 ft 326 kts 53°
2026-05-05 23:07 34.00009 -118.31473 11200 ft 334 kts 53°
2026-05-05 23:07 34.01344 -118.29109 11413 ft 348 kts 53°
2026-05-05 23:07 34.02738 -118.26655 11700 ft 360 kts 53°
2026-05-05 23:08 34.04166 -118.24132 12132 ft 367 kts 53°
2026-05-05 23:08 34.05608 -118.21583 12695 ft 370 kts 54°
2026-05-05 23:08 34.07072 -118.18990 13232 ft 375 kts 54°
2026-05-05 23:08 34.08551 -118.16375 13789 ft 379 kts 54°
2026-05-05 23:09 34.10024 -118.13768 14279 ft 382 kts 54°
2026-05-05 23:09 34.11533 -118.11099 14804 ft 387 kts 54°
2026-05-05 23:09 34.13055 -118.08414 15368 ft 391 kts 54°
2026-05-05 23:09 34.14590 -118.05691 15979 ft 393 kts 54°
2026-05-05 23:10 34.16148 -118.02918 16583 ft 395 kts 54°
2026-05-05 23:10 34.17699 -118.00160 17105 ft 398 kts 54°
2026-05-05 23:10 34.19238 -117.97422 17606 ft 402 kts 54°
2026-05-05 23:10 34.20814 -117.94619 18075 ft 405 kts 54°
2026-05-05 23:11 34.22232 -117.91672 18543 ft 408 kts 65°
2026-05-05 23:11 34.23107 -117.88397 19012 ft 413 kts 79°
2026-05-05 23:11 34.23399 -117.84931 19500 ft 416 kts 86°
2026-05-05 23:11 34.23441 -117.81432 19990 ft 418 kts 90°
2026-05-05 23:12 34.23351 -117.77908 20432 ft 422 kts 91°
2026-05-05 23:12 34.23204 -117.74355 20483 ft 423 kts 91°
2026-05-05 23:12 34.23043 -117.70813 20493 ft 422 kts 91°
2026-05-05 23:12 34.22892 -117.67277 20492 ft 422 kts 92°